GW6716 Weather Reports


time (UTC)temp
F
wind
direction
speed
knots
gust
knots
rain 1hr
in
rain 24hr
in
rain mn
in
humidity
%
barometer
mb
20260505111856 61 165 0.0 0.9 0.00 0.00 0.00 71 1012.7
20260505111351 60 144 0.9 0.9 0.00 0.00 0.00 70 1012.6
20260505110847 60 191 0.9 0.9 0.00 0.00 0.00 72 1012.7
20260505110345 60 186 1.7 1.7 0.00 0.00 0.00 71 1012.6
20260505101815 60 172 0.0 0.0 0.00 0.00 0.00 70 1012.1
20260505101310 60 158 0.9 0.9 0.00 0.00 0.00 70 1012.1
20260505100806 60 187 1.7 1.7 0.00 0.00 0.00 70 1012.1
20260505100303 60 165 0.9 0.9 0.00 0.00 0.00 70 1012.2
20260505095759 60 185 0.9 0.9 0.00 0.00 0.00 70 1012.0
20260505095257 60 154 0.9 0.9 0.00 0.00 0.00 70 1012.2
20260505094752 60 188 0.9 1.7 0.00 0.00 0.00 71 1012.1
20260505094249 60 148 0.9 0.9 0.00 0.00 0.00 70 1012.2
20260505093745 60 171 0.0 0.0 0.00 0.00 0.00 71 1012.0
20260505093243 60 171 0.9 0.9 0.00 0.00 0.00 71 1012.0
20260505092739 60 173 0.9 0.9 0.00 0.00 0.00 71 1012.1
20260505092238 60 192 0.9 0.9 0.00 0.00 0.00 70 1012.1
20260505091734 60 170 1.7 1.7 0.00 0.00 0.00 71 1011.8
20260505091233 60 179 0.0 0.9 0.00 0.00 0.00 72 1011.7
20260505090730 60 178 0.9 1.7 0.00 0.00 0.00 73 1011.9
20260505090228 60 148 0.9 0.9 0.00 0.00 0.00 72 1011.9
20260505085725 60 157 0.9 0.9 0.00 0.00 0.00 73 1011.9
20260505085224 60 143 0.9 0.9 0.00 0.00 0.00 73 1011.9
20260505084720 60 165 0.9 1.7 0.00 0.00 0.00 72 1011.8
20260505084220 60 150 0.9 0.9 0.00 0.00 0.00 71 1011.9
20260505083716 61 173 0.9 0.9 0.00 0.00 0.00 71 1011.9
20260505083213 61 178 1.7 1.7 0.00 0.00 0.00 71 1011.9
20260505082708 60 142 0.9 0.9 0.00 0.00 0.00 72 1012.1
20260505082206 61 146 0.0 0.0 0.00 0.00 0.00 71 1011.9
20260505081701 61 170 0.0 0.0 0.00 0.00 0.00 71 1012.0
20260505081159 61 179 0.9 0.9 0.00 0.00 0.00 71 1011.9
20260505080656 61 155 0.9 1.7 0.00 0.00 0.00 70 1012.0
20260505080152 61 161 0.9 0.9 0.00 0.00 0.00 71 1012.0
20260505075648 62 172 1.7 1.7 0.00 0.00 0.00 70 1011.9
20260505075145 62 192 0.9 1.7 0.00 0.00 0.00 69 1011.8
20260505074642 61 159 0.0 0.0 0.00 0.00 0.00 70 1011.8
20260505074139 62 151 0.0 0.0 0.00 0.00 0.00 70 1011.8
20260505073637 62 146 0.0 0.0 0.00 0.00 0.00 69 1011.8
20260505073135 61 172 0.9 0.9 0.00 0.00 0.00 69 1012.2
20260505072630 62 143 0.0 0.0 0.00 0.00 0.00 70 1012.0
20260505072127 61 156 0.0 0.9 0.00 0.00 0.00 69 1011.8
20260505071622 61 155 0.0 0.0 0.00 0.00 0.00 70 1011.8
20260505071121 61 162 0.0 0.0 0.00 0.00 0.00 70 1011.8
20260505070618 61 187 0.0 0.0 0.00 0.00 0.00 70 1011.8
20260505070114 61 160 0.0 0.9 0.00 0.00 0.00 69 1011.9
20260505065610 61 146 0.0 0.0 0.00 0.00 0.00 70 1011.7
20260505065106 61 155 0.0 0.0 0.00 0.00 0.00 70 1011.8
20260505064603 61 162 0.0 0.0 0.00 0.00 0.00 70 1011.7
20260505064102 61 179 0.9 0.9 0.00 0.00 0.00 70 1011.7
20260505063559 61 191 0.9 0.9 0.00 0.00 0.00 70 1011.5
20260505063054 61 173 0.9 0.9 0.00 0.00 0.00 70 1011.8
20260505062551 61 180 0.9 0.9 0.00 0.00 0.00 70 1011.4
20260505062049 61 145 0.9 0.9 0.00 0.00 0.00 70 1011.7
20260505061546 61 182 0.9 1.7 0.00 0.00 0.00 70 1011.7
20260505061044 61 148 0.0 0.9 0.00 0.00 0.00 70 1011.8
20260505060541 61 159 0.9 0.9 0.00 0.00 0.00 69 1011.8
20260505060038 61 161 0.9 0.9 0.00 0.00 0.00 69 1011.7
20260505055533 61 142 0.0 0.0 0.00 0.00 0.00 70 1011.6
20260505055030 61 149 0.0 0.9 0.00 0.00 0.00 69 1011.7
20260505054527 61 143 0.9 0.9 0.00 0.00 0.00 69 1011.7
20260505054025 61 158 0.9 0.9 0.00 0.00 0.00 69 1011.8
20260505053522 61 174 0.9 0.9 0.00 0.00 0.00 68 1012.1
20260505053019 61 124 0.0 0.0 0.00 0.00 0.00 69 1012.1
20260505052516 61 141 0.9 0.9 0.00 0.00 0.00 69 1011.9
20260505052013 61 146 0.9 0.9 0.00 0.00 0.00 68 1011.8
20260505051510 61 141 0.0 0.0 0.00 0.00 0.00 68 1011.9
20260505051008 61 163 1.7 1.7 0.00 0.00 0.00 68 1011.8
20260505050506 60 134 0.0 0.9 0.00 0.00 0.00 68 1011.9
20260505041433 61 153 0.0 0.9 0.00 0.00 0.00 65 1011.8
20260505040931 60 128 0.9 1.7 0.00 0.00 0.00 65 1011.7
20260505040428 61 112 0.9 1.7 0.00 0.00 0.00 65 1011.7
20260505035925 61 127 0.9 0.9 0.00 0.00 0.00 64 1011.6
20260505035421 61 130 0.9 0.9 0.00 0.00 0.00 63 1011.7
20260505034918 61 137 0.0 0.0 0.00 0.00 0.00 62 1011.7
20260505034414 61 138 0.0 0.0 0.00 0.00 0.00 62 1011.8
20260505033912 62 162 0.0 0.0 0.00 0.00 0.00 61 1011.6
20260505033408 62 143 0.9 0.9 0.00 0.00 0.00 60 1011.6
20260505032907 62 158 0.9 0.9 0.00 0.00 0.00 60 1011.7
20260505032403 62 135 0.0 0.0 0.00 0.00 0.00 59 1011.7
20260505031900 62 142 0.9 1.7 0.00 0.00 0.00 59 1011.6
20260505031357 62 131 0.0 0.9 0.00 0.00 0.00 58 1011.5
20260505030854 62 134 0.0 0.9 0.00 0.00 0.00 58 1011.6
20260505030349 62 128 0.0 0.0 0.00 0.00 0.00 57 1011.6
20260505025845 63 105 0.0 0.9 0.00 0.00 0.00 56 1011.7
20260505025343 62 147 2.6 2.6 0.00 0.00 0.00 55 1011.9
20260505024842 63 138 0.0 0.0 0.00 0.00 0.00 55 1011.7
20260505024339 63 121 0.0 0.0 0.00 0.00 0.00 55 1011.5
20260505023836 63 125 0.0 0.0 0.00 0.00 0.00 54 1011.7
20260505023332 63 126 0.0 0.0 0.00 0.00 0.00 54 1011.8
20260505022830 63 115 0.0 0.0 0.00 0.00 0.00 53 1011.8
20260505022327 64 131 1.7 2.6 0.00 0.00 0.00 53 1012.0
20260505021824 64 116 0.0 0.0 0.00 0.00 0.00 52 1012.0
20260505021321 64 126 0.0 0.9 0.00 0.00 0.00 52 1011.8
20260505020816 64 138 0.0 0.0 0.00 0.00 0.00 52 1011.8
20260505020312 64 146 0.0 0.9 0.00 0.00 0.00 51 1011.8
20260505015809 64 138 1.7 2.6 0.00 0.00 0.00 51 1011.8
20260505015306 64 125 0.0 0.0 0.00 0.00 0.00 51 1011.7
20260505014804 64 145 0.0 0.0 0.00 0.00 0.00 50 1011.6
20260505014301 64 123 0.0 0.0 0.00 0.00 0.00 49 1011.7
20260505013757 65 155 0.9 1.7 0.00 0.00 0.00 49 1011.7
20260505013254 65 157 1.7 2.6 0.00 0.00 0.00 48 1011.6
20260505012753 65 127 0.0 0.0 0.00 0.00 0.00 48 1011.5
20260505012250 65 126 0.0 0.0 0.00 0.00 0.00 47 1011.4
20260505011745 65 150 1.7 2.6 0.00 0.00 0.00 46 1011.5
20260505011242 66 110 0.0 0.0 0.00 0.00 0.00 46 1011.3
20260505010738 66 143 0.0 0.0 0.00 0.00 0.00 46 1011.4
20260505010234 66 136 0.0 0.0 0.00 0.00 0.00 46 1011.3
20260505005731 66 142 1.7 1.7 0.00 0.00 0.00 45 1011.3
20260505005228 66 133 0.0 0.9 0.00 0.00 0.00 45 1011.1
20260505004725 67 130 0.0 0.0 0.00 0.00 0.00 45 1011.0
20260505004222 67 155 0.0 1.7 0.00 0.00 0.00 45 1010.9
20260505003719 67 102 0.0 0.9 0.00 0.00 0.00 45 1011.1
20260505003217 67 130 0.0 0.0 0.00 0.00 0.00 46 1010.9
20260505002712 67 125 0.9 1.7 0.00 0.00 0.00 45 1011.0
20260505002210 68 155 0.9 2.6 0.00 0.00 0.00 45 1011.1
20260505001708 68 122 0.9 0.9 0.00 0.00 0.00 44 1011.0
20260505001205 68 103 0.0 0.9 0.00 0.00 0.00 44 1011.0
20260505000702 68 131 0.0 0.9 0.00 0.00 0.00 44 1011.1
20260505000200 68 104 0.0 0.9 0.00 0.00 0.00 43 1011.0
20260504235656 68 105 0.0 0.0 0.00 0.00 0.00 43 1010.9
20260504235152 69 114 0.0 0.9 0.00 0.00 0.00 42 1010.9
20260504234650 69 140 0.0 0.0 0.00 0.00 0.00 42 1010.9
20260504234147 69 138 0.9 1.7 0.00 0.00 0.00 41 1010.9
20260504233642 69 137 0.0 0.0 0.00 0.00 0.00 41 1010.9
20260504233139 70 139 1.7 1.7 0.00 0.00 0.00 41 1010.9
20260504232637 70 160 0.9 0.9 0.00 0.00 0.00 41 1011.0
20260504232133 70 178 1.7 1.7 0.00 0.00 0.00 41 1010.7
20260504231630 70 136 1.7 2.6 0.00 0.00 0.00 41 1010.7
20260504231126 71 145 0.9 0.9 0.00 0.00 0.00 40 1010.9
20260504230622 71 120 0.0 0.9 0.00 0.00 0.00 40 1011.0
20260504230121 71 136 0.0 0.0 0.00 0.00 0.00 40 1010.9
20260504225619 71 124 0.0 0.9 0.00 0.00 0.00 39 1010.9
20260504225115 71 129 0.9 2.6 0.00 0.00 0.00 39 1011.0
20260504224612 71 154 1.7 2.6 0.00 0.00 0.00 39 1010.9
20260504224109 72 146 0.9 2.6 0.00 0.00 0.00 39 1011.0
20260504223606 72 218 0.9 0.9 0.00 0.00 0.00 39 1010.7
20260504223101 72 175 0.9 0.9 0.00 0.00 0.00 38 1010.9
20260504222559 73 158 0.0 0.0 0.00 0.00 0.00 39 1010.7
20260504222056 73 217 1.7 1.7 0.00 0.00 0.00 37 1011.0
20260504221553 73 126 0.9 0.9 0.00 0.00 0.00 37 1011.0
20260504221050 73 197 1.7 1.7 0.00 0.00 0.00 37 1011.0
20260504220546 74 168 0.9 1.7 0.00 0.00 0.00 36 1011.1
20260504220043 74 204 1.7 2.6 0.00 0.00 0.00 37 1010.7
20260504215539 74 121 0.9 0.9 0.00 0.00 0.00 38 1011.1
20260504215037 73 141 0.0 0.0 0.00 0.00 0.00 37 1011.2
20260504214533 74 158 1.7 1.7 0.00 0.00 0.00 37 1011.1
20260504214030 74 176 0.9 1.7 0.00 0.00 0.00 36 1011.0
20260504213526 74 99 0.9 0.9 0.00 0.00 0.00 37 1011.3
20260504213024 74 180 3.5 3.5 0.00 0.00 0.00 36 1011.3
20260504212519 74 78 0.0 0.0 0.00 0.00 0.00 36 1011.0
20260504212017 74 130 0.9 0.9 0.00 0.00 0.00 37 1011.2
20260504211514 75 149 0.0 0.9 0.00 0.00 0.00 36 1011.2
20260504211011 74 186 1.7 1.7 0.00 0.00 0.00 35 1011.3
20260504210508 74 116 0.9 1.7 0.00 0.00 0.00 36 1011.6
20260504210004 74 202 3.5 3.5 0.00 0.00 0.00 36 1011.4
20260504205502 73 192 0.9 1.7 0.00 0.00 0.00 36 1011.4
20260504205000 74 147 0.0 0.9 0.00 0.00 0.00 35 1011.4
20260504204458 74 172 2.6 2.6 0.00 0.00 0.00 35 1011.4
20260504203957 74 144 1.7 2.6 0.00 0.00 0.00 36 1011.5
20260504203454 74 198 1.7 1.7 0.00 0.00 0.00 36 1011.4
20260504202950 74 246 1.7 1.7 0.00 0.00 0.00 37 1011.4
20260504202447 73 151 0.0 0.9 0.00 0.00 0.00 37 1011.6
20260504201943 73 278 2.6 2.6 0.00 0.00 0.00 37 1011.7
20260504201441 72 227 2.6 2.6 0.00 0.00 0.00 36 1011.8
20260504200938 73 168 1.7 1.7 0.00 0.00 0.00 37 1011.8
20260504200435 74 200 0.9 1.7 0.00 0.00 0.00 36 1011.7
20260504195931 72 202 0.9 0.9 0.00 0.00 0.00 36 1012.0
20260504195427 72 118 1.7 2.6 0.00 0.00 0.00 36 1012.1
20260504194924 72 198 1.7 1.7 0.00 0.00 0.00 36 1012.1
20260504194420 72 159 0.9 0.9 0.00 0.00 0.00 36 1012.3
20260504193916 73 116 0.0 0.9 0.00 0.00 0.00 35 1012.4
20260504193414 71 170 1.7 1.7 0.00 0.00 0.00 36 1012.3
20260504192912 72 128 1.7 2.6 0.00 0.00 0.00 35 1012.5
20260504192409 71 106 1.7 2.6 0.00 0.00 0.00 36 1012.6
20260504191908 71 157 0.9 0.9 0.00 0.00 0.00 36 1012.7
20260504191406 72 141 1.7 2.6 0.00 0.00 0.00 35 1012.7
20260504190900 71 212 3.5 5.2 0.00 0.00 0.00 35 1012.8
20260504190357 72 193 1.7 2.6 0.00 0.00 0.00 35 1012.9
20260504185853 71 160 0.0 0.9 0.00 0.00 0.00 38 1012.9
20260504185351 71 121 0.0 0.0 0.00 0.00 0.00 37 1012.8
20260504184846 71 132 1.7 1.7 0.00 0.00 0.00 35 1012.9
20260504184342 70 168 1.7 1.7 0.00 0.00 0.00 38 1013.0
20260504183839 72 135 0.9 0.9 0.00 0.00 0.00 35 1013.0
20260504183336 71 156 1.7 2.6 0.00 0.00 0.00 36 1013.1
20260504182834 69 221 1.7 2.6 0.00 0.00 0.00 36 1013.2
20260504182331 70 186 1.7 2.6 0.00 0.00 0.00 37 1013.4
20260504181828 73 234 2.6 3.5 0.00 0.00 0.00 35 1013.5
20260504181325 71 94 2.6 5.2 0.00 0.00 0.00 35 1013.5
20260504180824 71 219 0.9 0.9 0.00 0.00 0.00 35 1013.3
20260504180322 70 245 2.6 2.6 0.00 0.00 0.00 35 1013.4
20260504175820 70 236 2.6 3.5 0.00 0.00 0.00 35 1013.5
20260504175316 70 153 0.9 1.7 0.00 0.00 0.00 35 1013.5
20260504174815 71 84 0.0 0.9 0.00 0.00 0.00 35 1013.5
20260504174312 70 154 1.7 3.5 0.00 0.00 0.00 36 1013.7
20260504173808 70 191 3.5 3.5 0.00 0.00 0.00 34 1013.9
20260504173305 69 194 2.6 3.5 0.00 0.00 0.00 36 1013.8
20260504172802 68 106 3.5 3.5 0.00 0.00 0.00 36 1014.0
20260504172259 69 122 2.6 2.6 0.00 0.00 0.00 35 1014.1
20260504171754 70 200 1.7 1.7 0.00 0.00 0.00 34 1014.3
20260504171252 68 109 0.0 0.0 0.00 0.00 0.00 37 1014.3
20260504170749 70 248 0.0 0.9 0.00 0.00 0.00 35 1014.2
20260504170246 70 88 0.9 2.6 0.00 0.00 0.00 33 1014.3
20260504160204 69 100 0.9 0.9 0.00 0.00 0.00 41 1015.2
20260504151132 68 134 0.9 0.9 0.00 0.00 0.00 45 1015.6
20260504150630 68 131 1.7 1.7 0.00 0.00 0.00 41 1015.5
20260504150126 65 168 1.7 1.7 0.00 0.00 0.00 42 1015.5
20260504141055 62 219 0.9 1.7 0.00 0.00 0.00 51 1015.6
20260504140552 64 133 0.0 0.0 0.00 0.00 0.00 49 1015.8
20260504130516 60 237 1.7 3.5 0.00 0.00 0.00 61 1016.0